Location: Garel
(45.0754°N, 1.9878°E)
Time: 09:52:35
(UTC+00:00)

Daily predictions for brighter satellites

Satellite Brightness Start Highest point End
(mag) Time Altitude Azimuth Time Altitude Azimuth Time Altitude Azimuth
RESURS DK-1 4.2 19:57:46 10° SE 19:59:52 14° ESE 20:01:57 10° ENE
BREEZE-M DEB (TANK) 2.8 19:57:41 10° WNW 20:00:08 44° NNE 20:05:01 10° E
Cosmos 44 Rocket 4.3 19:56:31 10° S 20:00:57 29° ESE 20:05:26 10° NE
Cosmos 1408 2.7 19:57:25 10° S 20:01:04 82° W 20:04:42 10° N
Tsikada Rocket 4.5 19:55:58 10° SSW 20:02:06 68° W 20:08:23 10° N
Ariane Rocket 3.0 19:59:12 10° SSE 20:04:17 81° ENE 20:09:23 10° NNW
MOS 1 4.4 20:03:35 10° SSE 20:09:16 85° WSW 20:14:58 10° NNW
Cosmos 1818 3.9 20:04:58 10° SW 20:10:24 75° NW 20:15:55 10° NNE
Cosmos 1437 2.8 20:08:26 10° N 20:11:06 43° ENE 20:13:46 10° SSE
ARIANE 5 R/B 4.3 20:08:56 10° ESE 20:12:11 20° ENE 20:15:26 10° NNE
Meteor 2-13 Rocket 4.5 20:09:24 10° S 20:15:25 63° E 20:21:27 10° NNE
Cosmos 1633 3.9 20:13:22 10° SE 20:16:11 22° E 20:19:00 10° NE
Cosmos 1697 Rocket 2.9 20:11:16 10° NNW 20:16:55 62° ENE 20:22:29 10° SE
ISS -1.7 20:17:53 10° WNW 20:20:48 26° N 20:23:42 10° ENE
ERS-2 2.1 20:17:15 10° NNE 20:20:56 88° W 20:24:33 10° SSW
Cosmos 2082 Rocket 2.8 20:19:11 10° S 20:24:16 36° ESE 20:29:23 10° NE
Cosmos 2221 2.7 20:20:18 10° N 20:24:32 55° E 20:28:45 10° SSE
Cosmos 1833 Rocket 2.7 20:22:47 10° SSW 20:28:25 78° ESE 20:34:04 10° NNE
USA 307 4.1 20:25:40 10° WNW 20:29:30 32° SW 20:33:18 10° SSE
Cosmos 2279 Rocket 4.0 20:25:19 10° N 20:31:32 90° W 20:37:44 10° S
Gbstr 26 Del rocket 4.5 20:28:58 10° WNW 20:32:17 29° N 20:35:47 10° ENE
Terra 3.5 20:29:10 10° ESE 20:32:30 20° ENE 20:35:54 10° NNE
SPOT 3 Rocket 3.6 20:27:18 10° SSE 20:32:32 79° ENE 20:37:46 10° NNW
BREEZE-M DEB (TANK) 3.4 20:30:12 10° SSW 20:33:28 47° SE 20:43:27 10° ENE
Cosmos 1242 Rocket 2.9 20:30:16 10° NNW 20:33:51 64° W 20:37:23 10° S
NOSS 3-4 (A) 3.7 20:31:31 10° SW 20:37:19 72° NW 20:43:35 10° NE
NOSS 3-4 (C) 3.7 20:31:37 10° SW 20:37:25 72° NW 20:43:41 10° NE
Cosmos 773 Rocket 4.1 20:33:21 10° S 20:38:27 56° ESE 20:43:31 10° NNE
USA 276 3.8 20:37:06 10° WNW 20:40:01 33° N 20:42:56 10° ENE
IGS 5A 3.9 20:39:07 10° S 20:43:13 61° W 20:47:21 10° NNW
ATLAS 2AS CENTAUR R/B 3.0 20:38:20 10° SSW 20:46:14 77° ESE 20:54:00 10° NE
Cosmos 1606 2.6 20:44:40 10° N 20:48:26 71° E 20:51:15 17° SSE
COSMOS 2406 3.4 20:44:49 10° SSW 20:50:29 79° WNW 20:56:14 10° NNE
Cosmos 2369 3.7 20:45:27 10° NNW 20:51:08 81° ENE 20:55:33 17° SSE
ERBS 2.5 20:49:46 10° NW 20:52:58 58° NE 20:54:49 22° ESE
Landsat 7 4.5 20:53:01 10° S 20:57:39 54° W 21:02:20 10° NNW
Cosmos 1782 4.5 20:56:23 10° NNE 20:59:24 20° ENE 21:00:54 17° E
Cosmos 2151 3.4 20:57:41 20° SSE 21:00:11 42° E 21:04:13 10° NNE
Nadezhda 4 Rocket 3.9 20:55:18 10° S 21:01:24 76° E 21:07:37 10° N
GP-B 3.7 20:58:42 10° NNE 21:02:52 39° E 21:05:05 23° SE
Cosmos 1980 Rocket 2.2 20:57:18 10° NNW 21:02:57 74° ENE 21:06:48 21° SE
USA 267 3.5 20:57:19 10° ENE 21:03:33 45° SE 21:09:45 10° SSW
Cosmos 1842 Rocket 4.1 20:59:17 10° NNW 21:03:42 60° W 21:07:48 12° S
ERS-1 Rocket 3.3 21:00:53 20° SE 21:04:08 52° ENE 21:09:01 10° N
Spot 2 Rocket 3.5 21:00:59 18° SSE 21:04:47 76° ENE 21:09:55 10° N
ATLAS 3B R/B 3.1 20:58:36 10° NNW 21:05:38 62° NE 21:11:03 19° SE
Cosmos 2058 4.3 21:04:09 10° SW 21:08:04 39° WNW 21:12:01 10° N
Cosmos 2322 Rocket 3.8 21:05:31 10° N 21:09:56 23° NE 21:13:47 12° E
Meteor 2-19 Rocket 4.4 21:10:39 15° S 21:15:43 66° E 21:21:44 10° NNE
Cosmos 1151 Rocket 4.4 21:12:12 10° NNE 21:15:51 26° ENE 21:17:20 21° ESE
Cosmos 1076 Rocket 3.7 21:12:40 10° SSW 21:16:58 73° W 21:21:20 10° N
Cosmos 1538 Rocket 4.0 21:12:59 12° S 21:17:51 63° ESE 21:23:00 10° NNE
BREEZE-M DEB (TANK) 2.9 21:15:33 10° W 21:18:06 41° NNW 21:19:23 16° NE
Resurs 01 Rocket 3.5 21:17:16 10° SSW 21:20:59 26° W 21:24:45 10° NW
Cosmos 158 Rocket 4.2 21:19:19 22° S 21:22:22 49° ESE 21:27:24 10° NNE
Cosmos 2098 Rocket 3.0 21:21:48 17° SSW 21:23:48 48° WNW 21:26:55 10° N
H-2A R/B 4.1 21:29:34 10° NNE 21:33:27 35° E 21:34:06 33° ESE
SL-16 R/B 3.0 21:29:51 10° NNW 21:35:13 41° NE 21:38:08 24° ESE
RESURS DK-1 2.9 21:33:16 10° SW 21:37:22 60° WNW 21:41:30 10° NNE
USA 234 3.9 21:31:41 12° E 21:37:34 51° NNE 21:43:52 10° NW
Cosmos 1271 Rocket 2.7 21:37:37 10° N 21:41:36 71° E 21:42:41 45° SSE
Cosmos 44 Rocket 4.5 21:37:17 10° WSW 21:42:18 47° NW 21:47:22 10° NNE
ARIANE 5 R/B 3.4 21:45:54 24° SSW 21:48:18 47° W 21:52:39 10° NNW
SPOT 5 2.9 21:46:27 30° S 21:48:23 59° WSW 21:52:41 10° NNW
Cosmos 304 Rocket 3.7 21:46:28 10° NNW 21:51:17 78° ENE 21:52:54 42° SSE
Cosmos 1933 3.6 21:48:10 10° NNW 21:52:12 62° W 21:53:35 37° SSW
Meteor 1-26 Rocket 4.3 21:48:25 10° NNW 21:54:27 85° W 21:57:21 32° S
BREEZE-M DEB (TANK) 4.3 21:53:04 10° WNW 21:57:10 66° SSW 22:04:29 24° SE
Cosmos 1408 Rocket 4.5 21:57:11 31° E 21:57:23 31° E 22:01:15 10° NNE
ISS -3.1 21:54:48 10° NW 21:58:07 50° NNE 21:58:48 42° ENE
Cosmos 923 Rocket 4.0 22:02:24 35° S 22:04:37 72° ESE 22:09:58 10° NNE
Cosmos 371 Rocket 4.2 22:02:51 10° NW 22:07:21 41° WSW 22:09:09 29° SSW
Cosmos 2278 4.5 22:02:51 10° NW 22:08:11 43° WSW 22:10:39 28° SSW
Meteor 2-14 Rocket 4.5 22:05:49 36° SSE 22:08:17 65° E 22:14:23 10° NNE
Cosmos 2082 Rocket 3.6 22:03:06 10° WSW 22:08:18 38° NW 22:13:34 10° NNE
Terra 2.3 22:08:03 34° SSW 22:09:52 54° W 22:14:33 10° NNW
USA 276 3.2 22:13:39 10° WNW 22:16:40 40° NNE 22:17:00 38° NNE
Cosmos 2056 Rocket 4.1 22:12:33 10° NNW 22:17:47 48° ENE 22:19:23 37° ESE
Cosmos 2333 Rocket 4.0 22:14:01 10° N 22:18:28 23° NE 22:21:43 15° E
Cosmos 1515 Rocket 3.9 22:14:14 10° N 22:18:34 49° ENE 22:19:04 46° E
Gbstr 26 Del rocket 3.3 22:15:49 10° NW 22:19:36 56° NNE 22:20:51 39° E
Cosmos 1862 3.2 22:25:14 73° E 22:25:16 73° E 22:29:16 10° NNE
Cosmos 2360 Rocket 2.8 22:20:23 10° NNW 22:25:47 45° ENE 22:27:48 33° ESE
ALOS 2 3.9 22:26:42 26° E 22:27:23 27° ENE 22:31:04 10° N
Cosmos 1766 Rocket 3.9 22:27:28 42° SW 22:28:43 60° W 22:33:06 10° N
Cosmos 1812 2.7 22:30:22 10° NNW 22:34:13 71° W 22:34:14 71° W
Cosmos 1782 4.0 22:32:09 10° NNW 22:35:47 33° W 22:36:29 31° WSW
Cosmos 1371 Rocket 4.0 22:33:22 10° NNW 22:38:47 79° ENE 22:39:57 55° SE
Cosmos 2112 Rocket 3.9 22:37:57 48° SSW 22:39:31 89° WNW 22:44:51 10° NNE
Cosmos 1680 Rocket 3.6 22:39:43 39° SW 22:41:42 74° WNW 22:46:59 10° NNE
SL-27 R/B 3.8 22:43:08 31° NE 22:43:08 31° NE 22:45:21 10° NNE
Cosmos 1328 Rocket 4.0 22:37:55 10° NNW 22:42:16 52° W 22:42:54 47° SW
Cosmos 1980 Rocket 4.2 22:42:45 10° WNW 22:46:16 17° W 22:48:34 14° SW
USA 267 3.6 22:40:15 10° NE 22:46:44 64° NNW 22:53:10 10° WSW
Cosmos 1151 Rocket 4.4 22:49:36 10° NNW 22:53:24 30° W 22:54:11 28° WSW
IRIDIUM 106 4.3 22:49:10 10° N 22:54:23 67° E 22:55:07 59° SE
Cosmos 2322 Rocket 2.2 22:48:54 10° NNW 22:54:31 68° WSW 22:55:35 55° SSW
ATLAS 3B R/B 3.8 22:49:47 10° NW 22:56:02 33° WSW 22:58:17 28° SW
Cosmos 2315 Rocket 4.1 22:55:05 10° N 23:01:22 69° E 23:03:02 49° SE
Cosmos 1805 Rocket 4.1 23:02:35 46° ENE 23:02:35 46° ENE 23:06:31 10° NNE
Cosmos 2237 4.2 23:07:57 10° NNW 23:13:37 64° WSW 23:14:27 57° SSW
Cosmos 1500 Rocket 3.6 23:14:13 73° W 23:14:14 73° W 23:18:40 10° N
Meteor 1-27 Rocket 3.6 23:08:41 10° NNW 23:14:19 86° W 23:15:18 63° S
COSMOS 2428 3.7 23:10:54 10° NNW 23:16:15 39° NE 23:18:23 29° E
Cosmos 2333 4.4 23:10:58 10° NNW 23:16:33 64° ENE 23:17:47 50° ESE
SL-16 R/B 3.1 23:14:10 10° NW 23:19:12 33° WSW 23:19:59 32° WSW
USA 234 3.3 23:19:00 50° S 23:20:29 63° SW 23:27:00 10° NW
Cosmos 1655 Rocket 4.4 23:18:09 37° SW 23:20:30 58° WNW 23:26:49 10° N
Cosmos 1624 Rocket 4.3 23:15:54 10° NNW 23:20:56 50° WSW 23:21:19 49° WSW
Cosmos 292 Rocket 3.6 23:18:11 10° NNW 23:22:58 80° WSW 23:23:00 80° WSW
Cosmos 2219 Rocket 2.7 23:17:31 10° NNW 23:22:59 51° ENE 23:24:30 40° ESE
Spot 4 4.3 23:25:02 47° WSW 23:25:16 48° W 23:29:56 10° NNW
Cosmos 2266 Rocket 4.3 23:23:51 40° SW 23:25:48 58° WNW 23:31:55 10° N
Cosmos 2228 Rocket 3.1 23:25:58 10° NNW 23:30:09 71° WNW 23:30:09 71° WNW
Cosmos 1743 Rocket 4.1 23:32:04 48° W 23:32:18 48° WNW 23:36:39 10° N
Thor Agena Rocket 4.1 23:28:15 10° NNE 23:32:59 42° E 23:32:59 42° E
COSMOS 2455 2.8 23:35:08 58° SE 23:35:39 60° ESE 23:41:35 10° NE
Cosmos 1420 Rocket 4.2 23:31:00 10° NNW 23:36:14 57° WSW 23:36:32 56° WSW
Nimbus 7 Rocket 4.3 23:33:05 10° NNE 23:39:09 77° ESE 23:40:13 60° S
Cosmos 1515 4.4 23:42:37 10° N 23:45:31 51° N 23:45:31 51° N
Meteor 1-20 Rocket 4.0 23:47:32 68° SSW 23:48:16 86° W 23:53:57 10° N
Cosmos 1666 Rocket 3.8 23:49:24 61° ENE 23:49:24 61° ENE 23:53:22 10° NNE
Cosmos 1633 Rocket 3.5 23:49:55 51° ENE 23:49:55 51° ENE 23:53:44 10° NNE
Cosmos 1452 Rocket 3.3 23:45:33 10° NNW 23:50:49 82° WSW 23:51:09 77° SSW
Cosmos 972 Rocket 4.2 23:51:10 57° WSW 23:52:06 69° WNW 23:57:16 10° NNE
Meteor 1-18 Rocket 4.4 23:47:12 10° N 23:53:05 65° ENE 23:54:13 53° SE
Sich 1 3.3 23:54:53 62° WNW 23:54:53 62° WNW 23:59:01 10° N
